Starlink 4473

operational
NORAD ID: 53660 Int'l Des: 2022-105 Owner: SPXS Country: US Constellation: starlink
LEOCIRCULARRETROGRADESSO

Über Starlink 4473

Beschreibung wird geladen...

Live-Position

3D-Globus wird geladen...

Nächste Überflüge

Höhenverlauf

Altitude vs Time

uPlot chart will show altitude changes over time

Zweizeiliger Elementsatz

1 53660U 22105N 25306.38338007 .00000385 00000-0 34504-4 0 9994
2 53660 97.6015 185.5739 0001755 86.6492 273.4933 15.01259149174135
Epoch: 2. Nov. 2025 • Age: 24 hours

Aktueller Status

Höhe 571.7 km
Geschwindigkeit 7.58 km/s
Subsatellitenpunkt 58.14°N, 10.52°W
Startdatum 31. Aug. 2022
Alter 3.1 years
Typ internet

Technische Details

Klassifizierung Payload
Masse 300.00 kg
Trockenmasse 290.00 kg
Gesamtmasse 300.00 kg
Länge 0.20 m
Durchmesser 2.80 m
Spannweite 9.00 m
Form Box + pan
Hersteller SPXS
Bus-Typ Starlink
Phasenstatus In Orbit
Besitzer/Staat SPXS/US

Große Konstellationen

Loading constellations...